Flag for Austria Weather past 2 weeks in Gänserndorf, Lower Austria, Austria

Now
35 °F

Passing clouds.


Feels Like: 30 °F
Forecast: 34 / 49 °F
Wind: 5 mph from North

Location: Wien / Schwechat-Flughafen

Current Time: Mar 6, 2015 at 2:04:33 AM

Latest Report: Mar 6, 2015 at 1:00 AM


Visibility: 28 mi

Pressure: 30.53 "Hg

Humidity: 71%

Dew point: 26 °F

Location of GänserndorfLocation

Historic Weather in Gänserndorf — Graph

°F

Gänserndorf temperature yesterday

Maximum temperature yesterday: 45 °F (at 12:00 PM)
Minimum temperature yesterday: 35 °F (at 5:00 AM)
Average temperature yesterday: 40 °F

Past Weeks' High & Low Weather Summary

 TemperatureHumidityPressure
High58 °F (Mar 2, 12:00 PM)100% (Feb 20, 8:00 AM)30.67 "Hg (Feb 20, 8:00 AM)
Low23 °F (Feb 20, 7:00 AM)34% (Feb 21, 12:00 PM)29.59 "Hg (Feb 23, 4:00 PM)
Average40 °F76%30.02 "Hg
* Reported Midnight between Feb 18 and Feb 19 — Midnight between Mar 5 and Mar 6, Gänserndorf, Weather by CustomWeather, © 2015

Note: Actual official high and low records may vary slightly from our data, if they occured in-between our weather recording intervals... More about our weather records

Advertising

Gänserndorf weather history for previous 24 hours

 ConditionsComfort  
Time TempWeatherWind HumidityBarometerVisibility
12:00 AM
Fri, Mar 6
37 °FOvercast.6 mph67%30.53 "Hg28 mi
11:00 PM
Thu, Mar 5
38 °FOvercast.8 mph63%30.51 "Hg25 mi
10:00 PM39 °FPassing clouds.8 mph68%30.49 "Hg25 mi
9:00 PM39 °FPassing clouds.8 mph70%30.47 "Hg25 mi
8:00 PM40 °FOvercast.7 mph65%30.47 "Hg28 mi
7:00 PM40 °FOvercast.7 mph63%30.45 "Hg31 mi
6:00 PM40 °FPassing clouds.6 mph63%30.43 "Hg28 mi
5:00 PM43 °FOvercast.7 mph58%30.40 "Hg22 mi
4:00 PM43 °FOvercast.8 mph55%30.40 "Hg28 mi
3:00 PM44 °FOvercast.8 mph54%30.39 "Hg22 mi
2:00 PM44 °FOvercast.8 mph53%30.39 "Hg28 mi
1:00 PM44 °FOvercast.8 mph54%30.40 "Hg22 mi
12:00 PM45 °FPartly sunny.9 mph54%30.40 "Hg17 mi
11:00 AM42 °FPartly sunny.8 mph56%30.41 "Hg17 mi
10:00 AM42 °FScattered clouds.8 mph54%30.40 "Hg19 mi
9:00 AM41 °FPartly sunny.6 mph61%30.42 "Hg17 mi
8:00 AM39 °FOvercast.6 mph67%30.41 "Hg11 mi
7:00 AM36 °FOvercast.5 mph71%30.40 "Hg12 mi
6:00 AM36 °FOvercast.5 mph70%30.39 "Hg12 mi
5:00 AM35 °FOvercast.N/A71%30.38 "Hg12 mi
4:00 AM35 °FPassing clouds.3 mph70%30.38 "Hg16 mi
2:00 AM37 °FPassing clouds.5 mph69%30.38 "Hg14 mi
Weather by CustomWeather, © 2015

See weather overviewHow to use our weather pages